timestamp,wind_dir_avg,wind_spd_avg,wind_spd_max_dir,wind_spd_gust,battery_voltage,lat,long
2021-06-28 00:04:01+00:00,212.0,12.69,215.0,15.01,12.89,47.59359,-54.27349
2021-06-28 00:14:01+00:00,212.0,11.58,203.0,13.66,12.65,47.59359,-54.27349
2021-06-28 00:24:01+00:00,212.0,12.62,213.0,14.14,12.65,47.59359,-54.27349
2021-06-28 00:34:01+00:00,213.0,13.12,213.0,14.98,12.65,47.59359,-54.27349
2021-06-28 00:44:01+00:00,211.0,12.85,211.0,14.84,12.65,47.59359,-54.27349
2021-06-28 00:54:01+00:00,212.0,12.83,209.0,15.4,12.65,47.59359,-54.27349
2021-06-28 01:04:01+00:00,213.0,12.31,215.0,14.38,12.65,47.59359,-54.27349
2021-06-28 01:14:00+00:00,212.0,12.09,216.0,13.85,12.57,47.59359,-54.27349
2021-06-28 01:24:00+00:00,212.0,11.8,212.0,13.24,12.57,47.59359,-54.27349
2021-06-28 01:34:00+00:00,213.0,12.5,210.0,14.21,12.57,47.59359,-54.27349
2021-06-28 01:44:00+00:00,214.0,12.51,219.0,14.19,12.57,47.59359,-54.27349
2021-06-28 01:54:00+00:00,213.0,11.96,208.0,13.62,12.57,47.59359,-54.27349
2021-06-28 02:04:00+00:00,211.0,12.11,216.0,13.84,12.57,47.59359,-54.27349
2021-06-28 02:14:01+00:00,210.0,11.35,199.0,13.51,12.57,47.59359,-54.27349
2021-06-28 02:24:01+00:00,211.0,11.78,216.0,14.11,12.57,47.59359,-54.27349
2021-06-28 02:34:01+00:00,210.0,12.64,209.0,14.15,12.57,47.59359,-54.27349
2021-06-28 02:44:01+00:00,211.0,12.2,215.0,14.29,12.57,47.59359,-54.27349
2021-06-28 02:54:01+00:00,213.0,12.52,213.0,14.99,12.57,47.59359,-54.27349
2021-06-28 03:04:01+00:00,211.0,11.91,209.0,14.01,12.57,47.59359,-54.27349
2021-06-28 03:14:01+00:00,211.0,13.58,217.0,15.73,12.57,47.59359,-54.27349
2021-06-28 03:24:01+00:00,213.0,13.31,220.0,15.59,12.57,47.59359,-54.27349
2021-06-28 03:34:01+00:00,213.0,13.02,208.0,14.31,12.57,47.59359,-54.27349
2021-06-28 03:44:01+00:00,212.0,12.32,219.0,13.84,12.57,47.59359,-54.27349
2021-06-28 03:54:01+00:00,210.0,13.33,213.0,15.33,12.57,47.59359,-54.27349
2021-06-28 04:04:01+00:00,212.0,12.4,213.0,14.79,12.57,47.59359,-54.27349
2021-06-28 04:14:00+00:00,211.0,12.76,218.0,15.19,12.57,47.59359,-54.27349
2021-06-28 04:24:00+00:00,209.0,12.31,214.0,14.37,12.57,47.59359,-54.27349
2021-06-28 04:34:00+00:00,212.0,13.63,216.0,16.42,12.57,47.59359,-54.27349
2021-06-28 04:44:00+00:00,212.0,13.1,216.0,15.01,12.57,47.59359,-54.27349
2021-06-28 04:54:00+00:00,211.0,13.37,210.0,15.93,12.57,47.59359,-54.27349
2021-06-28 05:04:00+00:00,209.0,12.88,210.0,14.56,12.57,47.59359,-54.27349
2021-06-28 05:14:01+00:00,211.0,12.48,208.0,14.18,12.57,47.59359,-54.27349
2021-06-28 05:24:01+00:00,208.0,12.25,212.0,14.32,12.57,47.59359,-54.27349
2021-06-28 05:34:01+00:00,216.0,12.34,223.0,13.68,12.57,47.59359,-54.27349
2021-06-28 05:44:01+00:00,214.0,11.95,217.0,13.61,12.57,47.59359,-54.27349
2021-06-28 05:54:01+00:00,213.0,12.94,211.0,14.27,12.57,47.59359,-54.27349
2021-06-28 06:04:01+00:00,214.0,12.29,216.0,14.02,12.57,47.59359,-54.27349
2021-06-28 06:14:01+00:00,217.0,11.13,215.0,12.52,12.49,47.59359,-54.27349
2021-06-28 06:24:01+00:00,216.0,10.5,215.0,12.37,12.49,47.59359,-54.27349
2021-06-28 06:34:01+00:00,212.0,11.14,213.0,12.67,12.49,47.59359,-54.27349
2021-06-28 06:44:01+00:00,217.0,10.29,218.0,11.89,12.49,47.59359,-54.27349
2021-06-28 06:54:01+00:00,215.0,9.96,212.0,11.28,12.49,47.59359,-54.27349
2021-06-28 07:04:01+00:00,220.0,9.14,225.0,10.75,12.49,47.59359,-54.27349
2021-06-28 07:14:00+00:00,214.0,10.92,215.0,12.28,12.49,47.59359,-54.27349
2021-06-28 07:24:00+00:00,212.0,11.54,210.0,12.72,12.49,47.59359,-54.27349
2021-06-28 07:34:00+00:00,213.0,11.77,211.0,13.17,12.49,47.59359,-54.27349
2021-06-28 07:44:00+00:00,215.0,11.8,221.0,13.58,12.49,47.59359,-54.27349
2021-06-28 07:54:00+00:00,215.0,11.54,219.0,13.08,12.49,47.59359,-54.27349
2021-06-28 08:04:00+00:00,216.0,11.75,219.0,14.16,12.49,47.59359,-54.27349
2021-06-28 08:14:01+00:00,210.0,11.88,213.0,14.07,12.41,47.59359,-54.27349
2021-06-28 08:24:01+00:00,210.0,11.55,209.0,13.84,12.41,47.59359,-54.27349
2021-06-28 08:34:01+00:00,208.0,12.08,207.0,13.46,12.41,47.59359,-54.27349
2021-06-28 08:44:01+00:00,208.0,11.72,213.0,13.46,12.41,47.59359,-54.27349
2021-06-28 08:54:01+00:00,211.0,12.69,217.0,15.26,12.41,47.59359,-54.27349
2021-06-28 09:04:01+00:00,209.0,13.17,210.0,15.01,12.41,47.59359,-54.27349
2021-06-28 09:14:00+00:00,207.0,11.78,207.0,13.58,12.41,47.59359,-54.27349
2021-06-28 09:24:00+00:00,208.0,12.09,209.0,14.01,12.41,47.59359,-54.27349
2021-06-28 09:34:00+00:00,209.0,12.56,210.0,15.08,12.41,47.59359,-54.27349
2021-06-28 09:44:00+00:00,211.0,12.8,210.0,14.62,12.41,47.59359,-54.27349
2021-06-28 09:54:00+00:00,212.0,11.92,210.0,13.78,12.41,47.59359,-54.27349
2021-06-28 10:04:00+00:00,216.0,12.46,218.0,14.94,12.41,47.59359,-54.27349
2021-06-28 10:14:01+00:00,213.0,12.08,213.0,13.63,12.57,47.59359,-54.27349
2021-06-28 10:24:01+00:00,211.0,12.58,211.0,14.25,12.57,47.59359,-54.27349
2021-06-28 10:34:01+00:00,216.0,11.08,218.0,14.0,12.57,47.59359,-54.27349
2021-06-28 10:44:01+00:00,214.0,12.53,217.0,14.57,12.57,47.59359,-54.27349
2021-06-28 10:54:01+00:00,211.0,12.16,215.0,13.42,12.57,47.59359,-54.27349
2021-06-28 11:04:01+00:00,207.0,12.29,208.0,13.8,12.57,47.59359,-54.27349
2021-06-28 11:14:01+00:00,204.0,11.96,203.0,13.25,12.97,47.59359,-54.27349
2021-06-28 11:24:01+00:00,209.0,11.07,208.0,13.06,12.97,47.59359,-54.27349
2021-06-28 11:34:01+00:00,209.0,10.73,208.0,12.04,12.97,47.59359,-54.27349
2021-06-28 11:44:01+00:00,209.0,11.39,208.0,13.24,12.97,47.59359,-54.27349
2021-06-28 11:54:01+00:00,206.0,11.66,207.0,13.11,12.97,47.59359,-54.27349
2021-06-28 12:04:01+00:00,210.0,11.63,212.0,12.67,12.97,47.59359,-54.27349
2021-06-28 12:14:01+00:00,216.0,11.18,221.0,12.88,13.37,47.59359,-54.27349
2021-06-28 12:24:01+00:00,212.0,9.66,213.0,10.86,13.37,47.59359,-54.27349
2021-06-28 12:34:01+00:00,212.0,9.63,216.0,10.45,13.37,47.59359,-54.27349
2021-06-28 12:44:01+00:00,208.0,9.49,207.0,10.89,13.37,47.59359,-54.27349
2021-06-28 12:54:01+00:00,203.0,10.8,203.0,12.14,13.37,47.59359,-54.27349
2021-06-28 13:04:01+00:00,204.0,10.91,202.0,12.48,13.37,47.59359,-54.27349
2021-06-28 13:14:01+00:00,211.0,10.66,211.0,12.34,13.53,47.59359,-54.27349
2021-06-28 13:24:01+00:00,213.0,12.07,211.0,13.58,13.53,47.59359,-54.27349
2021-06-28 13:34:01+00:00,209.0,10.65,210.0,12.26,13.53,47.59359,-54.27349
2021-06-28 13:44:01+00:00,214.0,9.56,212.0,10.66,13.53,47.59359,-54.27349
2021-06-28 13:54:01+00:00,206.0,9.41,207.0,10.58,13.53,47.59359,-54.27349
2021-06-28 14:04:01+00:00,210.0,8.91,209.0,10.17,13.53,47.59359,-54.27349
2021-06-28 14:14:01+00:00,211.0,9.28,212.0,9.9,13.29,47.59359,-54.27349
2021-06-28 14:24:01+00:00,215.0,7.66,216.0,9.14,13.29,47.59359,-54.27349
2021-06-28 14:34:01+00:00,222.0,7.04,227.0,8.23,13.29,47.59359,-54.27349
2021-06-28 14:44:01+00:00,228.0,6.74,229.0,7.7,13.29,47.59359,-54.27349
2021-06-28 14:54:01+00:00,229.0,6.02,237.0,6.96,13.29,47.59359,-54.27349
2021-06-28 15:04:01+00:00,217.0,6.58,219.0,7.25,13.29,47.59359,-54.27349
2021-06-28 15:14:01+00:00,222.0,6.74,222.0,7.44,13.13,47.59359,-54.27349
2021-06-28 15:24:01+00:00,214.0,6.77,215.0,7.19,13.13,47.59359,-54.27349
2021-06-28 15:34:01+00:00,228.0,6.04,228.0,6.8,13.13,47.59359,-54.27349
2021-06-28 15:44:01+00:00,227.0,7.19,224.0,7.88,13.13,47.59359,-54.27349
2021-06-28 15:54:01+00:00,231.0,6.35,230.0,7.45,13.13,47.59359,-54.27349
2021-06-28 16:04:01+00:00,234.0,7.45,238.0,8.1,13.13,47.59359,-54.27349
2021-06-28 16:14:01+00:00,182.0,6.13,181.0,6.8,13.84,47.59359,-54.27349
2021-06-28 16:24:01+00:00,191.0,6.73,192.0,7.72,13.84,47.59359,-54.27349
2021-06-28 16:34:01+00:00,211.0,3.86,213.0,4.76,13.84,47.59359,-54.27349
2021-06-28 16:44:01+00:00,201.0,4.51,198.0,5.33,13.84,47.59359,-54.27349
2021-06-28 16:54:01+00:00,216.0,6.17,217.0,6.57,13.84,47.59359,-54.27349
2021-06-28 17:04:01+00:00,229.0,5.86,227.0,6.46,13.84,47.59359,-54.27349
2021-06-28 17:14:01+00:00,212.0,6.46,211.0,7.06,13.68,47.59359,-54.27349
2021-06-28 17:24:01+00:00,186.0,4.68,186.0,5.02,13.68,47.59359,-54.27349
2021-06-28 17:34:01+00:00,201.0,6.76,203.0,7.36,13.68,47.59359,-54.27349
2021-06-28 17:44:01+00:00,180.0,2.09,180.0,2.48,13.68,47.59359,-54.27349
2021-06-28 17:54:01+00:00,206.0,2.41,206.0,2.62,13.68,47.59359,-54.27349
2021-06-28 18:04:01+00:00,216.0,2.86,216.0,3.12,13.68,47.59359,-54.27349
2021-06-28 18:14:01+00:00,172.0,1.62,170.0,1.87,13.84,47.59359,-54.27349
2021-06-28 18:24:01+00:00,210.0,2.41,209.0,2.58,13.84,47.59359,-54.27349
2021-06-28 18:34:01+00:00,208.0,1.91,210.0,1.98,13.84,47.59359,-54.27349
2021-06-28 18:44:01+00:00,203.0,2.53,202.0,2.98,13.84,47.59359,-54.27349
2021-06-28 18:54:01+00:00,199.0,2.1,200.0,2.29,13.84,47.59359,-54.27349
2021-06-28 19:04:01+00:00,202.0,2.65,207.0,3.01,13.84,47.59359,-54.27349
2021-06-28 19:14:01+00:00,190.0,1.25,193.0,1.73,13.84,47.59359,-54.27349
2021-06-28 19:24:01+00:00,352.0,1.68,348.0,2.37,13.84,47.59359,-54.27349
2021-06-28 19:34:01+00:00,23.0,4.72,29.0,5.57,13.84,47.59359,-54.27349
2021-06-28 19:44:01+00:00,33.0,6.53,37.0,7.2,13.84,47.59359,-54.27349
2021-06-28 19:54:01+00:00,29.0,6.46,31.0,6.99,13.84,47.59359,-54.27349
2021-06-28 20:04:01+00:00,42.0,8.63,49.0,10.34,13.84,47.59359,-54.27349
2021-06-28 20:14:01+00:00,45.0,8.88,41.0,9.83,13.68,47.59359,-54.27349
2021-06-28 20:24:01+00:00,41.0,8.94,42.0,9.77,13.68,47.59359,-54.27349
2021-06-28 20:34:01+00:00,32.0,6.7,34.0,7.73,13.68,47.59359,-54.27349
2021-06-28 20:44:01+00:00,39.0,4.93,37.0,5.73,13.68,47.59359,-54.27349
2021-06-28 20:54:01+00:00,43.0,5.04,46.0,5.61,13.68,47.59359,-54.27349
2021-06-28 21:04:01+00:00,49.0,4.79,51.0,5.21,13.68,47.59359,-54.27349
2021-06-28 21:14:01+00:00,53.0,2.59,53.0,2.88,13.84,47.59359,-54.27349
2021-06-28 21:24:01+00:00,43.0,4.22,36.0,4.74,13.84,47.59359,-54.27349
2021-06-28 21:34:01+00:00,40.0,4.67,39.0,4.92,13.84,47.59359,-54.27349
2021-06-28 21:44:01+00:00,35.0,4.8,35.0,5.2,13.84,47.59359,-54.27349
2021-06-28 21:54:01+00:00,40.0,6.44,40.0,6.7,13.84,47.59359,-54.27349
2021-06-28 22:04:01+00:00,42.0,6.24,52.0,7.28,13.84,47.59359,-54.27349
2021-06-28 22:14:01+00:00,41.0,6.01,42.0,6.25,13.53,47.59359,-54.27349
2021-06-28 22:24:01+00:00,48.0,6.89,46.0,7.6,13.53,47.59359,-54.27349
2021-06-28 22:34:01+00:00,41.0,7.71,43.0,8.19,13.53,47.59359,-54.27349
2021-06-28 22:44:01+00:00,38.0,7.73,37.0,8.4,13.53,47.59359,-54.27349
2021-06-28 22:54:01+00:00,37.0,7.39,39.0,8.06,13.53,47.59359,-54.27349
2021-06-28 23:04:01+00:00,34.0,7.07,38.0,7.56,13.53,47.59359,-54.27349
2021-06-28 23:14:01+00:00,23.0,7.82,23.0,8.85,13.21,47.59359,-54.27349
2021-06-28 23:24:01+00:00,21.0,9.46,16.0,10.74,13.21,47.59359,-54.27349
2021-06-28 23:34:01+00:00,21.0,9.98,27.0,11.12,13.21,47.59359,-54.27349
2021-06-28 23:44:01+00:00,21.0,8.94,20.0,10.41,13.21,47.59359,-54.27349
2021-06-28 23:54:01+00:00,21.0,8.62,21.0,9.32,13.21,47.59359,-54.27349
